Meteo pe oră la Ablazino

Astăzi, 26 Iulie, Luni

Timp Temperatura Precipitaţii Vânt Presiune Umiditate
00:00 +14°C° 0 mm 1 m/s 746 mmHg 73%
01:00 +14°C° 0 mm 1 m/s 746 mmHg 72%
02:00 +14°C° 0 mm 2 m/s 746 mmHg 71%
03:00 +15°C° 0 mm 1 m/s 746 mmHg 69%
04:00 +15°C° 0 mm 1 m/s 746 mmHg 67%
05:00 +16°C° 0 mm 1 m/s 746 mmHg 65%
06:00 +18°C° 0 mm 1 m/s 746 mmHg 62%
07:00 +18°C° 0 mm 2 m/s 746 mmHg 59%
08:00 +19°C° 0 mm 2 m/s 746 mmHg 55%
09:00 +20°C° 0 mm 2 m/s 746 mmHg 52%
10:00 +21°C° 0 mm 2 m/s 746 mmHg 48%
11:00 +22°C° 0 mm 3 m/s 746 mmHg 44%
12:00 +25°C° 0 mm 3 m/s 746 mmHg 41%
13:00 +26°C° 0 mm 3 m/s 746 mmHg 37%
14:00 +27°C° 0 mm 2 m/s 745 mmHg 34%
15:00 +26°C° 0 mm 2 m/s 745 mmHg 38%
16:00 +26°C° 0 mm 2 m/s 745 mmHg 42%
17:00 +25°C° 0 mm 2 m/s 745 mmHg 47%
18:00 +23°C° 0 mm 2 m/s 745 mmHg 52%
19:00 +21°C° 0 mm 2 m/s 745 mmHg 57%
20:00 +19°C° 0 mm 2 m/s 745 mmHg 61%
21:00 +19°C° 0 mm 1 m/s 745 mmHg 66%
22:00 +18°C° 0 mm 1 m/s 745 mmHg 72%
23:00 +16°C° 0 mm 1 m/s 746 mmHg 77%

Mâine, 27 Iulie, Marţi

Timp Temperatura Precipitaţii Vânt Presiune Umiditate
00:00 +16°C° 0 mm 1 m/s 746 mmHg 78%
01:00 +15°C° 0 mm 1 m/s 746 mmHg 79%
02:00 +14°C° 0 mm 0 m/s 746 mmHg 80%
03:00 +14°C° 0 mm 0 m/s 746 mmHg 80%
04:00 +15°C° 0 mm 0 m/s 746 mmHg 79%
05:00 +15°C° 0 mm 0 m/s 746 mmHg 78%
06:00 +18°C° 0 mm 0 m/s 746 mmHg 70%
07:00 +20°C° 0 mm 0 m/s 746 mmHg 61%
08:00 +22°C° 0 mm 0 m/s 746 mmHg 53%
09:00 +26°C° 0 mm 1 m/s 746 mmHg 47%
10:00 +27°C° 0 mm 1 m/s 746 mmHg 42%
11:00 +29°C° 0 mm 1 m/s 746 mmHg 37%
12:00 +29°C° 0 mm 1 m/s 746 mmHg 36%
13:00 +29°C° 0 mm 1 m/s 745 mmHg 35%
14:00 +29°C° 0 mm 1 m/s 745 mmHg 34%
15:00 +28°C° 0 mm 1 m/s 745 mmHg 38%
16:00 +28°C° 0 mm 1 m/s 744 mmHg 42%
17:00 +27°C° 0 mm 1 m/s 744 mmHg 46%
18:00 +24°C° 0.1 mm 2 m/s 744 mmHg 56%
19:00 +21°C° 0.1 mm 2 m/s 744 mmHg 66%
20:00 +19°C° 0.1 mm 2 m/s 744 mmHg 77%
21:00 +18°C° 0.1 mm 2 m/s 744 mmHg 79%
22:00 +17°C° 0.1 mm 2 m/s 744 mmHg 81%
23:00 +16°C° 0.1 mm 1 m/s 744 mmHg 83%

Poimâine, 28 Iulie, Miercuri

Timp Temperatura Precipitaţii Vânt Presiune Umiditate
00:00 +16°C° 0 mm 1 m/s 743 mmHg 83%
01:00 +16°C° 0 mm 2 m/s 743 mmHg 83%
02:00 +16°C° 0 mm 2 m/s 743 mmHg 83%
03:00 +16°C° 0 mm 1 m/s 743 mmHg 83%
04:00 +18°C° 0 mm 1 m/s 742 mmHg 82%
05:00 +18°C° 0 mm 1 m/s 742 mmHg 82%
06:00 +20°C° 0.1 mm 1 m/s 742 mmHg 75%
07:00 +22°C° 0.1 mm 1 m/s 742 mmHg 67%
08:00 +24°C° 0.1 mm 2 m/s 741 mmHg 60%
09:00 +26°C° 0 mm 2 m/s 741 mmHg 53%
10:00 +28°C° 0 mm 2 m/s 740 mmHg 46%
11:00 +29°C° 0 mm 2 m/s 740 mmHg 39%
12:00 +29°C° 0 mm 2 m/s 739 mmHg 38%
13:00 +29°C° 0 mm 2 m/s 739 mmHg 37%
14:00 +29°C° 0 mm 2 m/s 738 mmHg 36%
15:00 +27°C° 0.3 mm 3 m/s 738 mmHg 51%
16:00 +24°C° 0.3 mm 3 m/s 738 mmHg 65%
17:00 +21°C° 0.3 mm 4 m/s 737 mmHg 80%
18:00 +20°C° 0.3 mm 3 m/s 737 mmHg 85%
19:00 +19°C° 0.3 mm 2 m/s 737 mmHg 90%
20:00 +18°C° 0.3 mm 2 m/s 736 mmHg 95%
21:00 +18°C° 0.8 mm 2 m/s 736 mmHg 96%
22:00 +18°C° 0.8 mm 1 m/s 735 mmHg 97%
23:00 +18°C° 0.8 mm 1 m/s 735 mmHg 98%

29 Iulie, Joi

Timp Temperatura Precipitaţii Vânt Presiune Umiditate
00:00 +18°C° 1.2 mm 1 m/s 735 mmHg 99%
01:00 +18°C° 1.2 mm 1 m/s 734 mmHg 99%
02:00 +18°C° 1.2 mm 1 m/s 734 mmHg 99%
03:00 +18°C° 0.3 mm 1 m/s 734 mmHg 98%
04:00 +18°C° 0.3 mm 1 m/s 734 mmHg 98%
05:00 +18°C° 0.3 mm 1 m/s 734 mmHg 98%
06:00 +19°C° 0.1 mm 1 m/s 734 mmHg 94%
07:00 +19°C° 0.1 mm 2 m/s 734 mmHg 90%
08:00 +20°C° 0.1 mm 2 m/s 734 mmHg 86%
09:00 +21°C° 0.4 mm 2 m/s 734 mmHg 81%
10:00 +22°C° 0.4 mm 3 m/s 734 mmHg 77%
11:00 +24°C° 0.4 mm 3 m/s 734 mmHg 72%
12:00 +25°C° 0.2 mm 4 m/s 734 mmHg 62%
13:00 +26°C° 0.2 mm 4 m/s 734 mmHg 52%
14:00 +28°C° 0.2 mm 4 m/s 733 mmHg 42%
15:00 +27°C° 0 mm 4 m/s 733 mmHg 46%
16:00 +26°C° 0 mm 4 m/s 733 mmHg 50%
17:00 +25°C° 0 mm 4 m/s 733 mmHg 54%
18:00 +23°C° 0.1 mm 4 m/s 733 mmHg 62%
19:00 +21°C° 0.1 mm 3 m/s 733 mmHg 70%
20:00 +19°C° 0.1 mm 3 m/s 732 mmHg 78%
21:00 +19°C° 0.1 mm 3 m/s 733 mmHg 81%
22:00 +18°C° 0.1 mm 3 m/s 733 mmHg 84%
23:00 +17°C° 0.1 mm 3 m/s 733 mmHg 87%

30 Iulie, Vineri

Timp Temperatura Precipitaţii Vânt Presiune Umiditate
00:00 +17°C° 0 mm 3 m/s 733 mmHg 89%
01:00 +17°C° 0 mm 3 m/s 733 mmHg 91%
02:00 +16°C° 0 mm 3 m/s 733 mmHg 93%
03:00 +16°C° 0 mm 3 m/s 733 mmHg 92%
04:00 +16°C° 0 mm 3 m/s 733 mmHg 91%
05:00 +16°C° 0 mm 3 m/s 733 mmHg 91%
06:00 +18°C° 0 mm 4 m/s 733 mmHg 80%
07:00 +19°C° 0 mm 4 m/s 733 mmHg 69%
08:00 +20°C° 0 mm 5 m/s 733 mmHg 59%
09:00 +22°C° 0 mm 5 m/s 733 mmHg 53%
10:00 +23°C° 0 mm 5 m/s 733 mmHg 48%
11:00 +25°C° 0 mm 5 m/s 733 mmHg 43%
12:00 +25°C° 0 mm 5 m/s 733 mmHg 42%
13:00 +25°C° 0 mm 5 m/s 734 mmHg 41%
14:00 +25°C° 0 mm 5 m/s 734 mmHg 40%
15:00 +25°C° 0 mm 5 m/s 734 mmHg 43%
16:00 +23°C° 0 mm 5 m/s 734 mmHg 46%
17:00 +22°C° 0 mm 4 m/s 734 mmHg 50%
18:00 +21°C° 0 mm 4 m/s 734 mmHg 56%
19:00 +19°C° 0 mm 3 m/s 734 mmHg 62%
20:00 +17°C° 0 mm 2 m/s 734 mmHg 67%
21:00 +17°C° 0 mm 2 m/s 734 mmHg 70%
22:00 +16°C° 0 mm 2 m/s 734 mmHg 72%
23:00 +16°C° 0 mm 2 m/s 734 mmHg 75%

31 Iulie, Sâmbătă

Timp Temperatura Precipitaţii Vânt Presiune Umiditate
00:00 +15°C° 0 mm 2 m/s 734 mmHg 76%
01:00 +15°C° 0 mm 2 m/s 734 mmHg 78%
02:00 +15°C° 0 mm 2 m/s 734 mmHg 79%
03:00 +15°C° 0 mm 2 m/s 734 mmHg 76%
04:00 +16°C° 0 mm 3 m/s 734 mmHg 72%
05:00 +17°C° 0 mm 3 m/s 733 mmHg 69%
06:00 +17°C° 0.2 mm 3 m/s 733 mmHg 72%
07:00 +17°C° 0.2 mm 3 m/s 733 mmHg 75%
08:00 +18°C° 0.2 mm 3 m/s 733 mmHg 78%
09:00 +17°C° 1.6 mm 4 m/s 733 mmHg 83%
10:00 +17°C° 1.6 mm 4 m/s 733 mmHg 88%
11:00 +17°C° 1.6 mm 4 m/s 733 mmHg 93%
12:00 +17°C° 0.2 mm 4 m/s 733 mmHg 93%
13:00 +18°C° 0.2 mm 4 m/s 733 mmHg 92%
14:00 +19°C° 0.2 mm 4 m/s 733 mmHg 91%
15:00 +20°C° 0.1 mm 4 m/s 733 mmHg 86%
16:00 +20°C° 0.1 mm 4 m/s 733 mmHg 82%
17:00 +21°C° 0.1 mm 4 m/s 732 mmHg 77%
18:00 +20°C° 0 mm 3 m/s 733 mmHg 82%
19:00 +19°C° 0 mm 3 m/s 733 mmHg 86%
20:00 +18°C° 0 mm 3 m/s 733 mmHg 90%
21:00 +17°C° 0 mm 3 m/s 733 mmHg 91%
22:00 +16°C° 0 mm 2 m/s 733 mmHg 92%
23:00 +16°C° 0 mm 2 m/s 733 mmHg 93%
Arată mai mult

Formular de consimțământ

Meteoprog și furnizorii noștri de servicii pot stoca și accesa date personale, precum cookies, identificatori de dispozitiv sau alte tehnologii similare pe dispozitivul dumneavoastră și procesa astfel de date pentru a personaliza conținutul și reclamele, dar și pentru a oferi caracteristici de social media și pentru a analiza traficul.

  • Stocarea și/sau accesarea informațiilor pe dispozitivul dumneavoastră

    Cookies, identificatori de dispozitiv sau alte informații pot fi stocate sau accesate pe dispozitiv în scopurile indicate mai sus.

  • Reclame și conținut personalizat, evaluarea reclamelor și a conținutului, informații despre audiențe și dezvoltarea produselor

    Reclamele și conținutul pot fi personalizate pe baza unui profil. Pot fi adăugate date suplimentare pentru a personaliza mai bine reclamele și conținutul. Performanța reclamelor și conținutului poate fi măsurată. Pot fi obținute informații despre utilizatorii care au văzut reclamele și conținutul. Aceste date pot fi utilizate pentru a dezvolta sau îmbunătăți experiența utilizatorilor, sistemele și software-ul.

Dând clic pe ‘Sunt de acord’, permiteți utilizarea cookie-urilor menționate, a identificatorilor de dispozitiv, balizelor web sau altor tehnologii similare. Setările pot fi modificate din browser-ul dispozitivului dumneavoastră.

În anumite scopuri, interesele legitime pot prima asupra consimțământului. Puteți citi mai multe informații în acest sens în Politica privind Confidențialitatea Datelor și Cookie.